Location: Bratislava
(0.0000°N, 17.1167°E)
Time: 03:01:55
(UTC+01:00)

Okean-O - Pass Details

Date: 24 January 2021
Orbit: 638 x 641 km, 98.2° (Epoch: 06 March)

Event Time Altitude Azimuth Distance (km) Brightness Sun altitude
Rises 18:50:36 0° 162° (SSE) 2,941 6.1 -11.1°
Reaches altitude 10° 18:52:50 10° 159° (SSE) 2,030 5.2 -11.6°
Maximum altitude 18:57:12 62° 78° (ENE) 717 2.6 -12.6°
Drops below altitude 10° 19:01:33 10° 357° (N) 2,022 5.0 -13.6°
Sets 19:03:46 0° 354° (N) 2,929 5.9 -14.2°
